UA1ZKH-14 Weather Reports


Display with metric or nautical units.
time (UTC)temp
F
wind
direction
speed
MPH
gust
MPH
rain 1hr
in
rain 24hr
in
rain mn
in
humidity
%
barometer
mb
20260906105320 70 0.0 0.0 0.00 0.00 0.00 987.8
20260906104319 68 0.0 0.0 0.00 0.00 0.00 987.8
20260906103319 71 0.0 0.0 0.00 0.00 0.00 987.6
20260906102318 69 0.0 0.0 0.00 0.00 0.00 987.6
20260906101318 71 0.0 0.0 0.00 0.00 0.00 987.5
20260906100317 71 0.0 0.0 0.00 0.00 0.00 987.4
20260906095317 71 0.0 0.0 0.00 0.00 0.00 987.3
20260906094316 71 0.0 0.0 0.00 0.00 0.00 987.3
20260906093316 71 0.0 0.0 0.00 0.00 0.00 987.1
20260906092315 67 0.0 0.0 0.00 0.00 0.00 987.2
20260906091315 68 0.0 0.0 0.00 0.00 0.00 987.0
20260906090314 71 0.0 0.0 0.00 0.00 0.00 987.0
20260906085314 70 0.0 0.0 0.00 0.00 0.00 987.0
20260906084313 68 0.0 0.0 0.00 0.00 0.00 986.9
20260906083312 69 0.0 0.0 0.00 0.00 0.00 986.8
20260906082312 66 0.0 0.0 0.00 0.00 0.00 987.0
20260906081311 68 0.0 0.0 0.00 0.00 0.00 986.9
20260906080311 70 0.0 0.0 0.00 0.00 0.00 986.8
20260906075310 67 0.0 0.0 0.00 0.00 0.00 986.8
20260906074310 66 0.0 0.0 0.00 0.00 0.00 986.9
20260906073310 68 0.0 0.0 0.00 0.00 0.00 986.9
20260906072309 67 0.0 0.0 0.00 0.00 0.00 986.9
20260906071309 70 0.0 0.0 0.00 0.00 0.00 986.8
20260906070308 69 0.0 0.0 0.00 0.00 0.00 986.9
20260906065308 70 0.0 0.0 0.00 0.00 0.00 986.9
20260906064307 68 0.0 0.0 0.00 0.00 0.00 986.9
20260906063307 68 0.0 0.0 0.00 0.00 0.00 986.9
20260906062306 67 0.0 0.0 0.00 0.00 0.00 986.8
20260906061305 66 0.0 0.0 0.00 0.00 0.00 986.8
20260906060305 65 0.0 0.0 0.00 0.00 0.00 986.9
20260906055306 65 0.0 0.0 0.00 0.00 0.00 986.8
20260906054304 65 0.0 0.0 0.00 0.00 0.00 986.7
20260906053303 64 0.0 0.0 0.00 0.00 0.00 986.6
20260906052305 63 0.0 0.0 0.00 0.00 0.00 986.6
20260906051302 63 0.0 0.0 0.00 0.00 0.00 986.6
20260906050302 62 0.0 0.0 0.00 0.00 0.00 986.6
20260906045305 60 0.0 0.0 0.00 0.00 0.00 986.6
20260906044301 58 0.0 0.0 0.00 0.00 0.00 986.6
20260906043300 60 0.0 0.0 0.00 0.00 0.00 986.6
20260906042300 58 0.0 0.0 0.00 0.00 0.00 986.7
20260906041300 57 0.0 0.0 0.00 0.00 0.00 986.7
20260906040259 56 0.0 0.0 0.00 0.00 0.00 986.7
20260906035258 55 0.0 0.0 0.00 0.00 0.00 986.7
20260906034258 55 0.0 0.0 0.00 0.00 0.00 986.7
20260906033257 55 0.0 0.0 0.00 0.00 0.00 986.6
20260906032257 55 0.0 0.0 0.00 0.00 0.00 986.5
20260906031257 55 0.0 0.0 0.00 0.00 0.00 986.5
20260906030256 54 0.0 0.0 0.00 0.00 0.00 986.5
20260906025256 54 0.0 0.0 0.00 0.00 0.00 986.4
20260906024255 54 0.0 0.0 0.00 0.00 0.00 986.3
20260906023254 54 0.0 0.0 0.00 0.00 0.00 986.0
20260906022254 54 0.0 0.0 0.00 0.00 0.00 986.0
20260906021253 55 0.0 0.0 0.00 0.00 0.00 985.9
20260906020253 55 0.0 0.0 0.00 0.00 0.00 985.8
20260906015252 54 0.0 0.0 0.00 0.00 0.00 986.0
20260906014252 54 0.0 0.0 0.00 0.00 0.00 985.9
20260906013252 55 0.0 0.0 0.00 0.00 0.00 985.7
20260906012251 55 0.0 0.0 0.00 0.00 0.00 985.7
20260906011251 55 0.0 0.0 0.00 0.00 0.00 985.8
20260906010250 55 0.0 0.0 0.00 0.00 0.00 985.9
20260906005250 55 0.0 0.0 0.00 0.00 0.00 985.9
20260906004249 55 0.0 0.0 0.00 0.00 0.00 986.0
20260906003248 55 0.0 0.0 0.00 0.00 0.00 985.7
20260906002248 56 0.0 0.0 0.00 0.00 0.00 986.0
20260906001247 56 0.0 0.0 0.00 0.00 0.00 986.0
20260906000248 56 0.0 0.0 0.00 0.00 0.00 986.1
20260905235247 56 0.0 0.0 0.00 0.00 0.00 985.9
20260905234246 56 0.0 0.0 0.00 0.00 0.00 986.0
20260905233245 56 0.0 0.0 0.00 0.00 0.00 985.9
20260905232245 57 0.0 0.0 0.00 0.00 0.00 985.9
20260905231244 57 0.0 0.0 0.00 0.00 0.00 985.9
20260905230244 57 0.0 0.0 0.00 0.00 0.00 985.9
20260905225243 58 0.0 0.0 0.00 0.00 0.00 985.8
20260905224243 58 0.0 0.0 0.00 0.00 0.00 985.6
20260905223242 59 0.0 0.0 0.00 0.00 0.00 985.7
20260905222242 59 0.0 0.0 0.00 0.00 0.00 985.7
20260905221241 59 0.0 0.0 0.00 0.00 0.00 985.7
20260905220241 59 0.0 0.0 0.00 0.00 0.00 985.6
20260905215240 59 0.0 0.0 0.00 0.00 0.00 985.7
20260905214240 60 0.0 0.0 0.00 0.00 0.00 985.8
20260905213239 60 0.0 0.0 0.00 0.00 0.00 985.9
20260905212239 60 0.0 0.0 0.00 0.00 0.00 986.0
20260905211238 60 0.0 0.0 0.00 0.00 0.00 986.0
20260905210238 60 0.0 0.0 0.00 0.00 0.00 986.0
20260905205238 59 0.0 0.0 0.00 0.00 0.00 986.1
20260905204237 60 0.0 0.0 0.00 0.00 0.00 986.0
20260905203236 59 0.0 0.0 0.00 0.00 0.00 986.0
20260905202236 59 0.0 0.0 0.00 0.00 0.00 985.8
20260905201235 60 0.0 0.0 0.00 0.00 0.00 985.5
20260905200235 60 0.0 0.0 0.00 0.00 0.00 985.7
20260905195234 59 0.0 0.0 0.00 0.00 0.00 985.8
20260905194234 60 0.0 0.0 0.00 0.00 0.00 985.7
20260905193233 60 0.0 0.0 0.00 0.00 0.00 985.8
20260905192233 60 0.0 0.0 0.00 0.00 0.00 985.7
20260905191232 61 0.0 0.0 0.00 0.00 0.00 985.8
20260905190232 61 0.0 0.0 0.00 0.00 0.00 986.0
20260905185231 61 0.0 0.0 0.00 0.00 0.00 986.3
20260905184231 61 0.0 0.0 0.00 0.00 0.00 986.2
20260905183230 61 0.0 0.0 0.00 0.00 0.00 986.4
20260905182230 63 0.0 0.0 0.00 0.00 0.00 986.8
20260905181229 64 0.0 0.0 0.00 0.00 0.00 985.9
20260905180229 63 0.0 0.0 0.00 0.00 0.00 985.2
20260905175228 63 0.0 0.0 0.00 0.00 0.00 985.2
20260905174228 63 0.0 0.0 0.00 0.00 0.00 985.3
20260905173227 64 0.0 0.0 0.00 0.00 0.00 985.3
20260905172227 64 0.0 0.0 0.00 0.00 0.00 985.4
20260905171227 64 0.0 0.0 0.00 0.00 0.00 985.4
20260905170226 63 0.0 0.0 0.00 0.00 0.00 985.4
20260905165225 63 0.0 0.0 0.00 0.00 0.00 985.6
20260905164225 63 0.0 0.0 0.00 0.00 0.00 985.6
20260905163224 64 0.0 0.0 0.00 0.00 0.00 985.6
20260905162224 65 0.0 0.0 0.00 0.00 0.00 985.7
20260905161223 65 0.0 0.0 0.00 0.00 0.00 985.5
20260905160223 65 0.0 0.0 0.00 0.00 0.00 985.6
20260905155222 65 0.0 0.0 0.00 0.00 0.00 985.6
20260905154222 65 0.0 0.0 0.00 0.00 0.00 985.6
20260905153221 65 0.0 0.0 0.00 0.00 0.00 985.4
20260905152221 65 0.0 0.0 0.00 0.00 0.00 985.4
20260905151220 66 0.0 0.0 0.00 0.00 0.00 985.4
20260905150220 66 0.0 0.0 0.00 0.00 0.00 985.3
20260905145219 66 0.0 0.0 0.00 0.00 0.00 985.3
20260905144219 65 0.0 0.0 0.00 0.00 0.00 985.2
20260905143218 65 0.0 0.0 0.00 0.00 0.00 985.4
20260905142218 65 0.0 0.0 0.00 0.00 0.00 985.5
20260905141217 65 0.0 0.0 0.00 0.00 0.00 985.4
20260905140217 65 0.0 0.0 0.00 0.00 0.00 985.6
20260905135216 66 0.0 0.0 0.00 0.00 0.00 985.6
20260905134216 66 0.0 0.0 0.00 0.00 0.00 985.7
20260905133215 65 0.0 0.0 0.00 0.00 0.00 985.9
20260905132215 66 0.0 0.0 0.00 0.00 0.00 985.9
20260905131214 66 0.0 0.0 0.00 0.00 0.00 985.8
20260905130214 67 0.0 0.0 0.00 0.00 0.00 985.8
20260905125213 68 0.0 0.0 0.00 0.00 0.00 985.8
20260905124213 67 0.0 0.0 0.00 0.00 0.00 986.0
20260905123212 64 0.0 0.0 0.00 0.00 0.00 986.0
20260905122211 63 0.0 0.0 0.00 0.00 0.00 986.1
20260905121211 63 0.0 0.0 0.00 0.00 0.00 986.2
20260905120210 63 0.0 0.0 0.00 0.00 0.00 986.6
20260905115210 63 0.0 0.0 0.00 0.00 0.00 986.6
20260905114210 63 0.0 0.0 0.00 0.00 0.00 986.5
20260905113209 63 0.0 0.0 0.00 0.00 0.00 986.0
20260905112209 64 0.0 0.0 0.00 0.00 0.00 986.3
20260905111208 65 0.0 0.0 0.00 0.00 0.00 986.4
20260905110208 65 0.0 0.0 0.00 0.00 0.00 986.4